[[{"header":{"parameterUnit":"m.s-1","parameterCategory":1,"la1":30.2991,"la2":30.254,"lo1":-89.0895,"lo2":-89.0444,"dy":0.0017,"dx":0.0017,"nx":28,"ny":28,"refTime":"2025-03-12T21:00:00:Z","depth":0,"parameterNumber":2,"parameterNumberName":"U-component_of_WINDS"},"data":[0,0,0,0,0,0,0,0,0,0,0,0,0,0,0,0,0,0,0,0,0,0,0,0,0,0,0,0,0,0,0,0,0,0,0,0,0,0,0,0,0,0,0,0,0,0,0,0,0,0,0,0,0,0,0,0,0,0,-0.8323,-0.8323,0,-0.8345,-0.8346,-0.8346,-0.8375,-0.8375,-0.8376,-0.8376,-0.8397,-0.8397,-0.8398,0,0,0,0,0,0,0,0,0,0,0,0,0,-0.8304,-0.8304,-0.8323,-0.8323,-0.8324,-0.8345,-0.8346,-0.8346,-0.8375,-0.8375,-0.8376,-0.8376,-0.8397,-0.8397,-0.8398,0,0,0,0,0,0,0,0,0,0,0,0,0,-0.8318,-0.8304,-0.8323,-0.8341,-0.8343,-0.8345,-0.8346,-0.8346,-0.8375,-0.8375,-0.8376,-0.8377,-0.8397,-0.8397,-0.8398,-0.8384,0,0,-0.8398,-0.8398,0,0,0,0,0,0,0,0,-0.8317,-0.8319,-0.8338,-0.834,-0.8342,-0.8358,-0.8347,-0.8359,-0.8374,-0.8362,-0.8376,-0.8377,-0.8384,-0.8385,-0.8388,-0.8385,-0.8386,-0.8398,-0.8398,-0.8398,-0.8398,0,0,0,0,0,0,0,-0.8316,-0.8318,-0.8332,-0.8338,-0.834,-0.8347,-0.835,-0.8349,-0.8369,-0.8363,-0.8366,-0.8368,-0.8385,-0.8387,-0.8388,-0.8387,-0.8398,-0.8398,-0.8398,-0.8399,-0.8374,-0.8373,0,0,0,0,0,0,-0.8313,-0.8317,-0.8331,-0.8333,-0.8331,-0.8347,-0.835,-0.8352,-0.8369,-0.8372,-0.8367,-0.8369,-0.8387,-0.8388,-0.8389,-0.8374,-0.8398,-0.8399,-0.8399,-0.8375,-0.8374,-0.8373,0,0,0,0,0,0,-0.8312,-0.8314,-0.833,-0.8325,-0.8328,-0.8346,-0.8349,-0.8352,-0.8355,-0.8372,-0.8375,-0.8366,-0.8387,-0.8389,-0.8385,-0.8375,-0.8399,-0.8399,-0.8376,-0.8374,-0.8373,-0.8344,0,0,0,0,0,0,-0.8312,-0.8313,-0.8309,-0.8325,-0.8328,-0.8327,-0.8348,-0.8352,-0.8355,-0.8358,-0.8372,-0.8375,-0.8388,-0.8385,-0.8385,-0.8376,-0.8399,-0.8376,-0.8375,-0.8374,-0.8346,-0.8342,-0.8339,0,0,0,0,0,-0.8311,-0.83,-0.8309,-0.831,-0.8323,-0.8326,-0.8328,-0.8343,-0.8354,-0.8349,-0.836,-0.8374,-0.8376,-0.8384,-0.8385,-0.8375,-0.8377,-0.8375,-0.8374,-0.8348,-0.8343,-0.8339,0,0,0,0,0,0,-0.8282,-0.8302,-0.8312,-0.8306,-0.8314,-0.8331,-0.8325,-0.8338,-0.8343,-0.8345,-0.8364,-0.8367,-0.8361,-0.8368,-0.8376,-0.8363,-0.8379,-0.8377,-0.8358,-0.8354,-0.835,-0.8348,-0.8399,0,0,0,0,0,-0.8275,-0.8276,-0.8294,-0.8286,-0.829,-0.8307,-0.8309,-0.832,-0.8329,-0.8332,-0.8343,-0.8351,-0.8353,-0.8354,-0.8357,-0.8347,-0.835,-0.8341,-0.8337,-0.8334,-0.8332,-0.8327,-0.8323,-0.8367,-0.8367,-0.8367,0,0,-0.826,-0.8271,-0.8271,-0.8281,-0.8288,-0.8288,-0.831,-0.8309,-0.8309,-0.8332,-0.8329,-0.8337,-0.8347,-0.834,-0.8338,-0.8346,-0.8321,-0.8332,-0.8329,-0.8329,-0.8324,-0.832,-0.8316,-0.8366,-0.8366,-0.8366,0,0,-0.8233,-0.8242,-0.8237,-0.8244,-0.8255,-0.8266,-0.8265,-0.828,-0.8286,-0.8284,-0.8301,-0.8301,-0.8305,-0.8311,-0.8314,-0.8289,-0.8302,-0.829,-0.827,-0.8264,-0.8261,-0.8258,-0.8248,-0.8244,-0.8288,-0.8288,-0.8288,0,-0.8213,-0.8214,-0.8232,-0.823,-0.8234,-0.8256,-0.825,-0.8256,-0.8267,-0.8269,-0.8278,-0.8283,-0.8291,-0.8285,-0.8279,-0.8281,-0.828,-0.8288,-0.826,-0.8257,-0.8255,-0.8245,-0.8242,-0.8286,-0.8286,-0.8287,-0.8287,0,-0.8189,-0.8189,-0.8184,-0.8194,-0.8197,-0.8194,-0.821,-0.8211,-0.8222,-0.8232,-0.8229,-0.824,-0.8245,-0.8244,-0.8255,-0.824,-0.8245,-0.8257,-0.8273,-0.8248,-0.824,-0.8237,-0.8284,-0.8285,-0.8285,-0.8285,0,0,-0.8144,-0.8165,-0.8162,-0.8167,-0.8181,-0.8181,-0.8178,-0.8183,-0.8183,-0.819,-0.8188,-0.819,-0.8201,-0.8205,-0.8217,-0.8212,-0.819,-0.8225,-0.8225,-0.8217,-0.8173,-0.8163,-0.8158,-0.8199,-0.8199,-0.8198,-0.8172,0,-0.8119,-0.8115,-0.8131,-0.8123,-0.8123,-0.8143,-0.814,-0.8148,-0.8157,-0.8158,-0.8169,-0.817,-0.8185,-0.8187,-0.8183,-0.8194,-0.8181,-0.8196,-0.8196,-0.8195,-0.8192,-0.8154,-0.8144,-0.8118,-0.8168,-0.8168,-0.8168,0,-0.8089,-0.8095,-0.8087,-0.81,-0.8101,-0.8098,-0.8104,-0.8105,-0.8114,-0.8121,-0.8125,-0.8139,-0.8136,-0.8152,-0.8148,-0.8157,-0.8158,-0.8163,-0.8162,-0.8162,-0.8179,-0.8152,-0.8111,-0.8107,-0.8163,-0.8163,-0.8163,0,-0.8056,-0.8062,-0.8057,-0.8061,-0.8077,-0.8074,-0.8081,-0.809,-0.8092,-0.8097,-0.8099,-0.8103,-0.8106,-0.8108,-0.8123,-0.8133,-0.8116,-0.8134,-0.8121,-0.8121,-0.8116,-0.8116,-0.8073,-0.8118,-0.8118,-0.8118,-0.8118,0,-0.8026,-0.802,-0.8043,-0.804,-0.8033,-0.8051,-0.8044,-0.8053,-0.8061,-0.8059,-0.8077,-0.8076,-0.8095,-0.8095,-0.8106,-0.81,-0.8101,-0.8106,-0.8109,-0.8104,-0.8103,-0.8104,-0.8106,-0.8117,-0.8117,-0.8118,-0.8118,0,-0.7988,-0.8003,-0.7999,-0.8015,-0.8018,-0.8013,-0.8026,-0.8023,-0.8034,-0.8032,-0.8032,-0.8048,-0.8049,-0.8064,-0.8068,-0.8075,-0.8065,-0.8071,-0.8062,-0.8064,-0.805,-0.8051,-0.8006,-0.8,-0.8049,-0.8049,-0.8048,0,-0.7968,-0.7963,-0.7978,-0.7979,-0.7984,-0.7985,-0.7987,-0.8004,-0.8006,-0.8015,-0.8011,-0.8014,-0.8017,-0.8017,-0.8029,-0.8032,-0.8038,-0.8022,-0.8039,-0.8034,-0.8037,-0.8036,-0.8036,-0.8018,-0.8018,-0.8017,-0.8017,0,-0.7929,-0.7937,-0.7939,-0.7944,-0.7946,-0.7951,-0.7957,-0.7956,-0.7975,-0.7975,-0.7977,-0.7979,-0.7983,-0.7985,-0.799,-0.7996,-0.8009,-0.8012,-0.8009,-0.8003,-0.7997,-0.7999,-0.8051,-0.8012,-0.8013,-0.8013,-0.8014,-0.8014,-0.7899,-0.7896,-0.7905,-0.7907,-0.7914,-0.7918,-0.7917,-0.7927,-0.7928,-0.7933,-0.7943,-0.7943,-0.7951,-0.7959,-0.7964,-0.7963,-0.7971,-0.7967,-0.7966,-0.7965,-0.7962,-0.7998,-0.7964,-0.7964,-0.7965,-0.7965,-0.7965,0,-0.7861,-0.7868,-0.787,-0.7877,-0.7878,-0.7891,-0.7898,-0.7898,-0.7897,-0.7904,-0.7907,-0.7908,-0.7909,-0.7921,-0.7924,-0.7921,-0.7927,-0.7921,-0.7921,-0.7922,-0.7955,-0.7956,-0.7916,-0.7916,-0.7916,-0.7916,-0.7916,-0.7916,-0.7841,-0.7836,-0.7844,-0.7842,-0.785,-0.7849,-0.7852,-0.7856,-0.7861,-0.7862,-0.7863,-0.7871,-0.788,-0.7883,-0.7885,-0.7888,-0.7888,-0.788,-0.7885,-0.7915,-0.792,-0.7924,-0.7926,-0.788,-0.788,-0.7853,-0.7852,-0.7852]},{"header":{"parameterUnit":"m.s-1","parameterCategory":1,"la1":30.2991,"la2":30.254,"lo1":-89.0895,"lo2":-89.0444,"dy":0.0017,"dx":0.0017,"nx":28,"ny":28,"refTime":"2025-03-12T21:00:00:Z","depth":0,"parameterNumber":3,"parameterNumberName":"V-component_of_WINDS"},"data":[0,0,0,0,0,0,0,0,0,0,0,0,0,0,0,0,0,0,0,0,0,0,0,0,0,0,0,0,0,0,0,0,0,0,0,0,0,0,0,0,0,0,0,0,0,0,0,0,0,0,0,0,0,0,0,0,0,0,3.3134,3.3135,0,3.3292,3.3294,3.3296,3.3323,3.3321,3.332,3.3319,3.3481,3.3487,3.3492,0,0,0,0,0,0,0,0,0,0,0,0,0,3.2856,3.2861,3.3133,3.3135,3.3137,3.3292,3.3294,3.3296,3.3323,3.3321,3.332,3.3318,3.348,3.3486,3.3493,0,0,0,0,0,0,0,0,0,0,0,0,0,3.2992,3.2863,3.3133,3.3169,3.3174,3.3291,3.3294,3.3297,3.3323,3.3321,3.3319,3.3317,3.3477,3.3485,3.3494,3.3586,0,0,3.3519,3.3523,0,0,0,0,0,0,0,0,3.2984,3.3002,3.3162,3.3167,3.3173,3.3285,3.3256,3.3394,3.3324,3.3267,3.3319,3.3316,3.3418,3.3431,3.3465,3.3594,3.3601,3.352,3.3525,3.3529,3.3531,0,0,0,0,0,0,0,3.2975,3.2995,3.3196,3.3164,3.3171,3.3178,3.3195,3.3282,3.3352,3.3271,3.3274,3.3292,3.342,3.3457,3.3469,3.3603,3.352,3.3527,3.3533,3.3536,3.3819,3.3822,0,0,0,0,0,0,3.2958,3.2987,3.3191,3.3201,3.3071,3.3185,3.3204,3.3251,3.3351,3.3364,3.3294,3.3293,3.3444,3.3459,3.3475,3.3593,3.3529,3.3537,3.3541,3.3817,3.382,3.3823,0,0,0,0,0,0,3.2952,3.2976,3.3185,3.3095,3.3122,3.3192,3.3245,3.3256,3.3292,3.3368,3.338,3.3318,3.3443,3.3463,3.3559,3.3599,3.354,3.3548,3.3814,3.3818,3.3821,3.3827,0,0,0,0,0,0,3.2944,3.2974,3.3009,3.3095,3.3127,3.3266,3.3247,3.326,3.3307,3.3307,3.3394,3.3407,3.3443,3.3547,3.3568,3.3609,3.3555,3.3811,3.3816,3.382,3.3823,3.383,3.3836,0,0,0,0,0,3.2934,3.3004,3.3011,3.3035,3.3172,3.3268,3.3286,3.3326,3.331,3.3346,3.3395,3.3404,3.359,3.3556,3.358,3.3625,3.3809,3.3814,3.382,3.3821,3.3829,3.3836,0,0,0,0,0,0,3.292,3.3016,3.3024,3.3124,3.3188,3.3272,3.3319,3.3333,3.3402,3.34,3.3447,3.3466,3.356,3.3602,3.3562,3.3721,3.3698,3.3709,3.3691,3.3699,3.3706,3.3694,3.3562,0,0,0,0,0,3.2928,3.2997,3.3077,3.3157,3.3189,3.3249,3.3292,3.3317,3.3385,3.3412,3.3468,3.3534,3.3608,3.3656,3.3728,3.3829,3.385,3.3872,3.3878,3.3883,3.3892,3.3952,3.3964,3.3841,3.3841,3.3841,0,0,3.2946,3.3007,3.3048,3.3156,3.3208,3.3281,3.3271,3.3347,3.3401,3.3424,3.3519,3.3562,3.3639,3.3739,3.3786,3.3777,3.3931,3.389,3.3893,3.39,3.3959,3.3971,3.3981,3.3845,3.3844,3.3844,0,0,3.3016,3.3068,3.3142,3.3195,3.3275,3.3315,3.3332,3.3416,3.3446,3.3541,3.3561,3.3626,3.3752,3.3807,3.3851,3.3945,3.3956,3.3967,3.4,3.4058,3.4068,3.4077,3.4113,3.4125,3.3975,3.3975,3.3975,0,3.3029,3.3137,3.3178,3.3254,3.3303,3.3327,3.3403,3.3453,3.3552,3.3585,3.3573,3.3733,3.3786,3.3901,3.3924,3.3958,3.3982,3.3958,3.4063,3.4073,3.4081,3.4117,3.413,3.3976,3.3976,3.3976,3.3976,0,3.315,3.3226,3.3276,3.3372,3.3425,3.3501,3.3555,3.3604,3.3625,3.3667,3.3766,3.3831,3.3918,3.3946,3.3967,3.4065,3.4057,3.4054,3.4032,3.4093,3.4127,3.4141,3.3978,3.3977,3.3977,3.3977,0,0,3.3216,3.3335,3.3353,3.3398,3.3489,3.3548,3.3626,3.3711,3.3754,3.3822,3.389,3.3996,3.3995,3.4045,3.4072,3.4123,3.4197,3.4114,3.4116,3.4129,3.4312,3.4316,3.4331,3.4205,3.4207,3.4209,3.4307,0,3.3299,3.3438,3.3478,3.3596,3.3667,3.3692,3.376,3.3824,3.3865,3.3933,3.3978,3.4054,3.4044,3.4075,3.4126,3.4177,3.4235,3.417,3.427,3.4273,3.4252,3.4348,3.4352,3.4441,3.432,3.4322,3.4324,0,3.3414,3.3485,3.361,3.3694,3.3726,3.3786,3.387,3.3933,3.4007,3.4033,3.4091,3.4114,3.4198,3.4171,3.4288,3.4244,3.4287,3.4318,3.4323,3.4335,3.4304,3.4366,3.447,3.4484,3.4345,3.4343,3.4342,0,3.3453,3.3579,3.3672,3.3709,3.3809,3.3851,3.3895,3.3966,3.4016,3.4089,3.4122,3.4203,3.4248,3.4311,3.4357,3.4332,3.4472,3.4447,3.4498,3.4497,3.4527,3.4525,3.4642,3.4551,3.4551,3.4551,3.455,0,3.3542,3.3619,3.3691,3.3748,3.3835,3.388,3.3966,3.401,3.4074,3.4142,3.4167,3.423,3.4285,3.4356,3.4392,3.4486,3.4505,3.453,3.454,3.453,3.4527,3.456,3.4556,3.4554,3.4553,3.4553,3.4552,0,3.3601,3.3652,3.3755,3.3841,3.3865,3.3925,3.4,3.4057,3.4099,3.4184,3.4207,3.4274,3.4358,3.441,3.4517,3.4541,3.4646,3.4651,3.4621,3.4626,3.4674,3.467,3.4819,3.4842,3.4733,3.4734,3.4734,0,3.3656,3.3715,3.3809,3.3856,3.39,3.3975,3.4026,3.4074,3.4127,3.4216,3.4263,3.435,3.4422,3.4556,3.4615,3.4698,3.4707,3.4754,3.472,3.4709,3.4711,3.4708,3.4716,3.476,3.4761,3.4761,3.4762,0,3.3749,3.3772,3.3845,3.3927,3.3988,3.4055,3.4122,3.4159,3.4219,3.4277,3.4364,3.442,3.453,3.4617,3.4705,3.4751,3.4768,3.4772,3.4789,3.478,3.4762,3.4776,3.4639,3.4769,3.4768,3.4768,3.4767,3.4767,3.381,3.3865,3.394,3.4021,3.4077,3.4139,3.4198,3.4248,3.4322,3.4416,3.4439,3.4532,3.4606,3.4727,3.4775,3.4849,3.4842,3.4865,3.4872,3.4877,3.488,3.4748,3.4865,3.4865,3.4864,3.4864,3.4864,0,3.3907,3.3957,3.403,3.4124,3.4189,3.4198,3.4273,3.4327,3.4408,3.4476,3.4547,3.4648,3.4733,3.4799,3.4886,3.4933,3.4943,3.4955,3.4953,3.4964,3.488,3.4858,3.4945,3.4945,3.4945,3.4945,3.4945,3.4945,3.3965,3.406,3.4092,3.4216,3.4265,3.4356,3.4399,3.4458,3.4513,3.4625,3.4696,3.4738,3.4806,3.4899,3.4978,3.4995,3.5028,3.5038,3.5057,3.4978,3.4969,3.4961,3.4941,3.5044,3.5044,3.5136,3.5137,3.5137]}]]